Regional Weather Roundup
Issued by NWS

Home | Current Version | Previous Version | Text Only | Print | Product List | Glossary Off
Versions: 1 2 3 4 5 6 7 8 9 10 11 12 13 14 15 16 17 18 19 20 21 22 23 24 25 26 27 28 29 30 31 32 33 34 35 36 37 38 39 40 41 42 43 44 45 46 47 48 49 50

000
ASUS43 KMKX 221111
RWRWI

WISCONSIN REGIONAL WEATHER ROUNDUP
NATIONAL WEATHER SERVICE MILWAUKEE/SULLIVAN WI
600 AM CDT WED OCT 22 2014

NOTE: "FAIR" INDICATES FEW OR NO CLOUDS BELOW 12,000 FEET WITH NO
SIGNIFICANT WEATHER AND/OR OBSTRUCTIONS TO VISIBILITY.

WIZ001-002-006>008-014>016-023>028-221200-
NORTHWEST WISCONSIN

CITY           SKY/WX    TMP DP  RH WIND       PRES   REMARKS
SUPERIOR ARPT  CLEAR     28  27  97 CALM      30.23R
ASHLAND        CLEAR     29  28  96 S6        30.27R WCI  23
HAYWARD        CLEAR     40  33  76 S7        30.26R
SIREN          CLEAR     40  34  78 S10G16    30.22S WCI  34
CUMBERLAND     CLEAR     36  32  87 SE8       30.25R WCI  29
RICE LAKE      CLEAR     37  33  85 SE8       30.28R WCI  31
CHETEK         CLEAR     36  33  90 E5        30.27S WCI  32
LADYSMITH      CLEAR     33  32  96 SE5       30.30S WCI  28
EAU CLAIRE     CLEAR     37  32  82 S8        30.28R WCI  31
MENOMONIE      CLEAR     35  32  91 E7        30.28R WCI  29
NEW RICHMOND   CLEAR     38  34  84 SE6       30.24R WCI  34
OSCEOLA        CLEAR     40  36  87 SE9       30.25S WCI  34
$$

WIZ003>005-009-010-017-018-221200-
NORTH CENTRAL WISCONSIN

CITY           SKY/WX    TMP DP  RH WIND       PRES   REMARKS
MANITOWISH WTR CLEAR     32  32 100 SE5       30.29S WCI  27
ARBOR VITAE    CLEAR     32  30  94 CALM      30.30R
WOODRUFF       CLEAR     32  30  94 CALM      30.30R
RHINELANDER    CLEAR     27  26  96 CALM      30.32R
EAGLE RIVER    CLEAR     29  29 100 CALM      30.31R
LAND O LAKES   CLEAR     22  21  96 CALM      30.32R
PHILLIPS       CLEAR     30  29  96 SE3       30.29R
TOMAHAWK       CLEAR     26  25  96 CALM      30.32R
MEDFORD        PTCLDY    32  30  93 SE3       30.30S
MERRILL        PTCLDY    24  23  97 CALM      30.32R
$$

WIZ029-030-035-036-043>047-221200-
CENTRAL WISCONSIN

CITY           SKY/WX    TMP DP  RH WIND       PRES   REMARKS
WAUSAU         PTCLDY    30  28  92 E6        30.32R WCI  24
MOSINEE        CLEAR     28  28 100 E3        30.33R
MARSHFIELD     PTCLDY    32  29  88 CALM      30.32R
STEVENS POINT  PTCLDY    26  25  96 CALM      30.34R
WAUPACA        PTCLDY    31  30  96 CALM      30.35R
WAUTOMA        PTCLDY    24  23  96 CALM      30.35R
WISC RAPIDS    CLEAR     27  26  96 CALM      30.34R FOG
CAMP DOUGLAS   PTCLDY    24  24 100 SE2       30.33R
$$

WIZ011>013-019>022-031-037>040-048>050-221200-
NORTHEAST WISCONSIN

CITY           SKY/WX    TMP DP  RH WIND       PRES   REMARKS
ANTIGO         MOCLDY    30  30 100 SE3       30.32S FOG
SHAWANO        CLEAR     33  32  95 NE3       30.35R
OCONTO           N/A     26  26 100 CALM      30.35R
STURGEON BAY   PTCLDY    34  28  80 E3        30.35S
GREEN BAY      FOG       32  31  96 CALM      30.35R VSB 1/4
MANITOWOC      CLEAR     30  29  96 CALM      30.35R
APPLETON       CLEAR     32  30  93 VRB5      30.34R WCI  27
CLINTONVILLE   PTCLDY    30  30 100 CALM      30.34S
OSHKOSH        PTCLDY    31  29  92 CALM      30.33R
$$

WIZ032>034-041-042-053>061-221200-
SOUTHWEST WISCONSIN

CITY           SKY/WX    TMP DP  RH WIND       PRES   REMARKS
LA CROSSE      CLEAR     37  33  85 SE6       30.30R WCI  32
SPARTA         CLEAR     25  24  96 CALM      30.31R
VIROQUA        CLEAR     34  34 100 SE6       30.30R WCI  29
BOSCOBEL       FOG       34  33  96 CALM      30.33R VSB 1/4
PRAIRIE DU CHI CLEAR     36  33  89 E3        30.31R
PLATTEVILLE    PTCLDY    34  33  96 E8        30.31S WCI  27
$$

WIZ056-057-062-063-064-067-068-221200-
SOUTH CENTRAL WISCONSIN

CITY           SKY/WX    TMP DP  RH WIND       PRES   REMARKS
REEDSBURG      FOG       27  26  99 CALM      30.33R VSB 3/4
BARABOO/DELLS  FOG       28  27  96 CALM      30.32S VSB 1/2
LONE ROCK      CLOUDY    32  28  85 CALM      30.34R FOG
MINERAL POINT  PTCLDY    36  34  93 SE5       30.31R FOG     WCI  32
MADISON        MOCLDY    27  26  96 CALM      30.33R FOG
MIDDLETON      MOCLDY    29  29 100 CALM      30.34R
WATERTOWN      CLEAR     25  24  97 CALM      30.32R
MONROE         PTCLDY    36  36 100 NE3       30.31R FOG
JANESVILLE     PTCLDY    30  28  93 CALM      30.32R
$$

WIZ051-052-058>065-066-070>072-221200-
SOUTHEAST WISCONSIN

CITY           SKY/WX    TMP DP  RH WIND       PRES   REMARKS
MILWAUKEE      PTCLDY    36  33  89 NW3       30.32R
WAUKESHA       CLEAR     28  28 100 CALM      30.33R
MILWAUKEE/TIMM CLEAR     32  30  93 CALM      30.33S
RACINE         MOCLDY    36  34  92 NW3       30.34R
BURLINGTON     CLEAR     25  25 100 CALM      30.32R FOG
KENOSHA        CLEAR     32  30  92 CALM      30.32R FOG
FOND DU LAC    PTCLDY    28  26  92 CALM      30.34R
SHEBOYGAN      PTCLDY    29  26  89 NE3       30.33S
WEST BEND      PTCLDY    30  28  93 CALM      30.33R
JUNEAU         PTCLDY    31  31  99 CALM      30.34R
$$

LSZ147-162-221200-
LAKE SUPERIOR

STATION/POSITION TIME  TEMP    WIND        PRES    WAVE
                       AIR SEA DIR/SP/G            HT/PER
                 (UTC) (F)     (DEG/KT/KT) (MB)    (FT/S)
W MID LAKE BUOY  1050   44 46  160/ 14/ 16 1025.5R   2/ 4
DEVILS ISLAND    1100   44     170/  6/  8 1025.3R
PORT WING        1040   42     160/  7/ 10 1023.7S
SAXON HARBOR     1000   33        CALM     1024.4R
$$

LMZ867-665-643>646-221200-
LAKE MICHIGAN

STATION/POSITION TIME  TEMP    WIND        PRES    WAVE
                       AIR SEA DIR/SP/G            HT/PER
                 (UTC) (F)     (DEG/KT/KT) (MB)    (FT/S)
CHAMBERS ISLAND  1000   37      CALM  /  2 1027.4S
N MID LAKE BUOY  1050   44 51  140/  6/  8 1028.7R   1/ 3
NORTHPORT PIER   1000   43     160/  5/  7 1027.8R
SISTER BAY       1027             CALM       N/A
KEWAUNEE LAKESHO 1000   32     300/  3/  5 1026.4R
SHEBOYGAN LAKESH 1100   46 49  120/  9/ 10 1027.9R
PORT WASHINGTON  1000   36     280/  3/  4 1027.4
ATWATER BUOY     1100   45     320/  6/  8 1027.7R
MILWAUKEE LAKESH 1000   40     320/  6/  7   N/A
S MID LAKE BUOY  1050   46 54  100/ 10/ 12 1027.4R   3/ 4
KENOSHA   LAKESH 1100   38     290/  5/  6 1026.8R
$$

TC  - TEMPERATURE IN CELSIUS
VSB - VISIBILITY IN STATUTE MILES
WCI - WIND CHILL INDEX
HX  - HEAT INDEX




USA.gov is the U.S. government's official web portal to all federal, state and local government web resources and services.